| time (UTC) | temp F | wind direction | speed knots | gust knots | rain 1hr in | rain 24hr in | rain mn in | humidity % | barometer mb |
| 20260831234139 | 92 | 187 | 0.0 | 0.9 | 0.00 | 0.00 | 0.00 | 58 | 1016.7 |
| 20260831233639 | 93 | 187 | 0.9 | 1.7 | 0.00 | 0.00 | 0.00 | 58 | 1016.7 |
| 20260831233139 | 93 | 192 | 0.9 | 1.7 | 0.00 | 0.00 | 0.00 | 57 | 1016.7 |
| 20260831232639 | 94 | 191 | 0.9 | 2.6 | 0.00 | 0.00 | 0.00 | 58 | 1016.6 |
| 20260831232139 | 94 | 175 | 0.9 | 2.6 | 0.00 | 0.00 | 0.00 | 57 | 1016.6 |
| 20260831231639 | 94 | 145 | 0.9 | 3.5 | 0.00 | 0.00 | 0.00 | 57 | 1016.7 |
| 20260831231139 | 94 | 124 | 1.7 | 3.5 | 0.00 | 0.00 | 0.00 | 58 | 1016.7 |
| 20260831230639 | 94 | 160 | 1.7 | 3.5 | 0.00 | 0.00 | 0.00 | 57 | 1016.8 |
| 20260831230139 | 94 | 212 | 1.7 | 3.5 | 0.00 | 0.00 | 0.00 | 57 | 1016.7 |
| 20260831225639 | 94 | 154 | 2.6 | 4.3 | 0.00 | 0.00 | 0.00 | 58 | 1016.8 |
| 20260831225139 | 95 | 193 | 1.7 | 5.2 | 0.00 | 0.00 | 0.00 | 57 | 1016.7 |
| 20260831224639 | 95 | 180 | 0.9 | 3.5 | 0.00 | 0.00 | 0.00 | 58 | 1016.7 |
| 20260831224139 | 95 | 151 | 0.9 | 3.5 | 0.00 | 0.00 | 0.00 | 57 | 1016.7 |
| 20260831223639 | 95 | 88 | 0.9 | 5.2 | 0.00 | 0.00 | 0.00 | 58 | 1016.7 |
| 20260831223139 | 95 | 203 | 0.9 | 3.5 | 0.00 | 0.00 | 0.00 | 58 | 1016.7 |
| 20260831222639 | 95 | 165 | 1.7 | 3.5 | 0.00 | 0.00 | 0.00 | 58 | 1016.8 |
| 20260831222139 | 95 | 88 | 0.9 | 4.3 | 0.00 | 0.00 | 0.00 | 57 | 1016.7 |
| 20260831221639 | 96 | 183 | 1.7 | 2.6 | 0.00 | 0.00 | 0.00 | 57 | 1016.7 |
| 20260831221139 | 95 | 181 | 2.6 | 3.5 | 0.00 | 0.00 | 0.00 | 56 | 1016.8 |
| 20260831220639 | 95 | 75 | 1.7 | 4.3 | 0.00 | 0.00 | 0.00 | 57 | 1016.9 |
| 20260831220139 | 95 | 86 | 0.9 | 5.2 | 0.00 | 0.00 | 0.00 | 57 | 1016.9 |
| 20260831215639 | 95 | 159 | 0.9 | 2.6 | 0.00 | 0.00 | 0.00 | 59 | 1016.9 |
| 20260831215139 | 94 | 106 | 1.7 | 3.5 | 0.00 | 0.00 | 0.00 | 57 | 1017.0 |
| 20260831214639 | 95 | 128 | 1.7 | 4.3 | 0.00 | 0.00 | 0.00 | 58 | 1017.0 |
| 20260831214139 | 95 | 147 | 1.7 | 5.2 | 0.00 | 0.00 | 0.00 | 57 | 1017.0 |
| 20260831213639 | 95 | 224 | 1.7 | 4.3 | 0.00 | 0.00 | 0.00 | 56 | 1017.0 |
| 20260831213139 | 96 | 183 | 1.7 | 4.3 | 0.00 | 0.00 | 0.00 | 55 | 1017.0 |
| 20260831212639 | 96 | 211 | 1.7 | 3.5 | 0.00 | 0.00 | 0.00 | 54 | 1017.0 |
| 20260831212139 | 95 | 223 | 1.7 | 3.5 | 0.00 | 0.00 | 0.00 | 55 | 1017.0 |
| 20260831211640 | 96 | 251 | 2.6 | 4.3 | 0.00 | 0.00 | 0.00 | 54 | 1017.1 |
| 20260831211139 | 97 | 211 | 2.6 | 6.1 | 0.00 | 0.00 | 0.00 | 53 | 1017.3 |
| 20260831210640 | 97 | 202 | 2.6 | 6.1 | 0.00 | 0.00 | 0.00 | 53 | 1017.4 |
| 20260831210140 | 97 | 251 | 1.7 | 5.2 | 0.00 | 0.00 | 0.00 | 54 | 1017.4 |
| 20260831205640 | 96 | 206 | 0.9 | 4.3 | 0.00 | 0.00 | 0.00 | 54 | 1017.3 |
| 20260831205140 | 96 | 231 | 1.7 | 2.6 | 0.00 | 0.00 | 0.00 | 55 | 1017.4 |
| 20260831204640 | 95 | 127 | 1.7 | 2.6 | 0.00 | 0.00 | 0.00 | 55 | 1017.4 |
| 20260831204140 | 94 | 201 | 1.7 | 3.5 | 0.00 | 0.00 | 0.00 | 57 | 1017.4 |
| 20260831203640 | 94 | 191 | 1.7 | 5.2 | 0.00 | 0.00 | 0.00 | 58 | 1017.4 |
| 20260831203140 | 93 | 193 | 1.7 | 4.3 | 0.00 | 0.00 | 0.00 | 58 | 1017.3 |
| 20260831202640 | 93 | 232 | 0.9 | 3.5 | 0.00 | 0.00 | 0.00 | 58 | 1017.4 |
| 20260831202140 | 93 | 210 | 0.9 | 2.6 | 0.00 | 0.00 | 0.00 | 60 | 1017.5 |
| 20260831201640 | 93 | 209 | 0.9 | 1.7 | 0.00 | 0.00 | 0.00 | 60 | 1017.6 |
| 20260831201140 | 93 | 208 | 0.9 | 1.7 | 0.00 | 0.00 | 0.00 | 62 | 1017.6 |
| 20260831200640 | 93 | 207 | 0.9 | 2.6 | 0.00 | 0.00 | 0.00 | 60 | 1017.6 |
| 20260831200140 | 94 | 61 | 0.0 | 0.9 | 0.00 | 0.00 | 0.00 | 60 | 1017.8 |
| 20260831195640 | 95 | 61 | 0.9 | 1.7 | 0.00 | 0.00 | 0.00 | 58 | 1017.9 |
| 20260831195140 | 95 | 61 | 0.0 | 0.9 | 0.00 | 0.00 | 0.00 | 63 | 1018.0 |
| 20260831194640 | 95 | 61 | 0.0 | 1.7 | 0.00 | 0.00 | 0.00 | 62 | 1018.0 |
| 20260831194140 | 94 | 61 | 0.0 | 0.9 | 0.00 | 0.00 | 0.00 | 62 | 1018.1 |
| 20260831193640 | 93 | 62 | 0.0 | 1.7 | 0.00 | 0.00 | 0.00 | 61 | 1018.1 |
| 20260831193140 | 93 | 60 | 0.0 | 1.7 | 0.00 | 0.00 | 0.00 | 61 | 1018.2 |
| 20260831192640 | 93 | 60 | 0.9 | 1.7 | 0.00 | 0.00 | 0.00 | 63 | 1018.1 |
| 20260831192140 | 93 | 61 | 0.9 | 1.7 | 0.00 | 0.00 | 0.00 | 63 | 1018.2 |
| 20260831191640 | 92 | 81 | 0.9 | 2.6 | 0.00 | 0.00 | 0.00 | 63 | 1018.2 |
| 20260831191140 | 93 | 153 | 0.9 | 3.5 | 0.00 | 0.00 | 0.00 | 63 | 1018.3 |
| 20260831190640 | 93 | 154 | 1.7 | 2.6 | 0.00 | 0.00 | 0.00 | 63 | 1018.3 |
| 20260831190140 | 93 | 181 | 0.9 | 3.5 | 0.00 | 0.00 | 0.00 | 63 | 1018.3 |
| 20260831185640 | 93 | 190 | 0.9 | 2.6 | 0.00 | 0.00 | 0.00 | 64 | 1018.4 |
| 20260831185140 | 92 | 167 | 0.9 | 3.5 | 0.00 | 0.00 | 0.00 | 64 | 1018.3 |
| 20260831184640 | 92 | 149 | 1.7 | 2.6 | 0.00 | 0.00 | 0.00 | 64 | 1018.5 |
| 20260831184140 | 92 | 162 | 0.9 | 3.5 | 0.00 | 0.00 | 0.00 | 63 | 1018.4 |
| 20260831183640 | 92 | 210 | 0.0 | 2.6 | 0.00 | 0.00 | 0.00 | 63 | 1018.6 |
| 20260831183140 | 92 | 190 | 0.0 | 1.7 | 0.00 | 0.00 | 0.00 | 64 | 1018.7 |
| 20260831182640 | 92 | 193 | 0.9 | 1.7 | 0.00 | 0.00 | 0.00 | 63 | 1018.7 |
| 20260831182140 | 92 | 193 | 0.9 | 1.7 | 0.00 | 0.00 | 0.00 | 64 | 1018.7 |
| 20260831181640 | 92 | 193 | 1.7 | 2.6 | 0.00 | 0.00 | 0.00 | 63 | 1018.8 |
| 20260831181140 | 93 | 207 | 1.7 | 4.3 | 0.00 | 0.00 | 0.00 | 63 | 1018.9 |
| 20260831180640 | 93 | 181 | 2.6 | 3.5 | 0.00 | 0.00 | 0.00 | 62 | 1019.0 |
| 20260831180140 | 93 | 182 | 3.5 | 6.1 | 0.00 | 0.00 | 0.00 | 62 | 1019.1 |
| 20260831175640 | 93 | 176 | 2.6 | 7.0 | 0.00 | 0.00 | 0.00 | 62 | 1019.1 |
| 20260831175140 | 93 | 192 | 1.7 | 6.1 | 0.00 | 0.00 | 0.00 | 63 | 1019.2 |
| 20260831174640 | 92 | 293 | 2.6 | 4.3 | 0.00 | 0.00 | 0.00 | 64 | 1019.4 |
| 20260831174140 | 92 | 262 | 3.5 | 5.2 | 0.00 | 0.00 | 0.00 | 66 | 1019.3 |
| 20260831173640 | 93 | 250 | 3.5 | 9.6 | 0.00 | 0.00 | 0.00 | 63 | 1019.4 |
| 20260831173140 | 94 | 236 | 2.6 | 7.0 | 0.00 | 0.00 | 0.00 | 62 | 1019.6 |
| 20260831172640 | 92 | 280 | 2.6 | 5.2 | 0.00 | 0.00 | 0.00 | 65 | 1019.5 |
| 20260831172140 | 92 | 194 | 1.7 | 5.2 | 0.00 | 0.00 | 0.00 | 64 | 1019.5 |
| 20260831171640 | 91 | 176 | 1.7 | 3.5 | 0.00 | 0.00 | 0.00 | 66 | 1019.6 |
| 20260831171140 | 91 | 152 | 1.7 | 3.5 | 0.00 | 0.00 | 0.00 | 66 | 1019.6 |
| 20260831170640 | 91 | 212 | 0.9 | 4.3 | 0.00 | 0.00 | 0.00 | 66 | 1019.8 |
| 20260831170140 | 90 | 245 | 0.9 | 1.7 | 0.00 | 0.00 | 0.00 | 67 | 1019.9 |
| 20260831165640 | 91 | 246 | 0.9 | 2.6 | 0.00 | 0.00 | 0.00 | 66 | 1020.0 |
| 20260831165140 | 90 | 248 | 0.0 | 2.6 | 0.00 | 0.00 | 0.00 | 67 | 1020.0 |
| 20260831164640 | 90 | 249 | 0.0 | 1.7 | 0.00 | 0.00 | 0.00 | 68 | 1020.0 |
| 20260831164140 | 90 | 249 | 0.9 | 1.7 | 0.00 | 0.00 | 0.00 | 70 | 1020.0 |
| 20260831163640 | 90 | 205 | 0.9 | 1.7 | 0.00 | 0.00 | 0.00 | 69 | 1020.1 |
| 20260831163140 | 90 | 206 | 1.7 | 3.5 | 0.00 | 0.00 | 0.00 | 70 | 1020.1 |
| 20260831162640 | 90 | 174 | 2.6 | 4.3 | 0.00 | 0.00 | 0.00 | 69 | 1020.1 |
| 20260831162140 | 90 | 234 | 2.6 | 5.2 | 0.00 | 0.00 | 0.00 | 69 | 1020.2 |
| 20260831161640 | 91 | 256 | 2.6 | 7.0 | 0.00 | 0.00 | 0.00 | 68 | 1020.1 |
| 20260831161140 | 91 | 186 | 3.5 | 6.1 | 0.00 | 0.00 | 0.00 | 67 | 1020.1 |
| 20260831160640 | 91 | 245 | 3.5 | 7.8 | 0.00 | 0.00 | 0.00 | 67 | 1020.2 |
| 20260831160140 | 91 | 168 | 3.5 | 7.8 | 0.00 | 0.00 | 0.00 | 66 | 1020.2 |
| 20260831155640 | 91 | 214 | 3.5 | 7.0 | 0.00 | 0.00 | 0.00 | 67 | 1020.2 |
| 20260831155140 | 91 | 226 | 2.6 | 7.0 | 0.00 | 0.00 | 0.00 | 69 | 1020.3 |
| 20260831154640 | 90 | 226 | 2.6 | 4.3 | 0.00 | 0.00 | 0.00 | 70 | 1020.2 |
| 20260831154140 | 91 | 251 | 2.6 | 5.2 | 0.00 | 0.00 | 0.00 | 69 | 1020.3 |
| 20260831153640 | 91 | 252 | 2.6 | 7.0 | 0.00 | 0.00 | 0.00 | 69 | 1020.3 |
| 20260831153140 | 91 | 226 | 1.7 | 4.3 | 0.00 | 0.00 | 0.00 | 68 | 1020.1 |
| 20260831152640 | 91 | 229 | 0.9 | 3.5 | 0.00 | 0.00 | 0.00 | 69 | 1020.2 |
| 20260831152140 | 90 | 262 | 1.7 | 4.3 | 0.00 | 0.00 | 0.00 | 70 | 1020.1 |
| 20260831151640 | 89 | 254 | 2.6 | 6.1 | 0.00 | 0.00 | 0.00 | 72 | 1020.1 |
| 20260831151140 | 89 | 214 | 1.7 | 5.2 | 0.00 | 0.00 | 0.00 | 71 | 1020.0 |
| 20260831150640 | 89 | 247 | 1.7 | 4.3 | 0.00 | 0.00 | 0.00 | 72 | 1020.1 |
| 20260831150140 | 89 | 202 | 1.7 | 3.5 | 0.00 | 0.00 | 0.00 | 74 | 1020.0 |
| 20260831145640 | 89 | 172 | 2.6 | 6.1 | 0.00 | 0.00 | 0.00 | 74 | 1020.1 |
| 20260831145140 | 89 | 200 | 1.7 | 5.2 | 0.00 | 0.00 | 0.00 | 73 | 1020.2 |
| 20260831144640 | 89 | 233 | 0.9 | 5.2 | 0.00 | 0.00 | 0.00 | 73 | 1020.0 |
| 20260831144140 | 88 | 278 | 0.9 | 1.7 | 0.00 | 0.00 | 0.00 | 75 | 1020.0 |
| 20260831143640 | 88 | 278 | 0.9 | 2.6 | 0.00 | 0.00 | 0.00 | 75 | 1019.8 |
| 20260831143140 | 87 | 288 | 0.9 | 1.7 | 0.00 | 0.00 | 0.00 | 77 | 1019.8 |
| 20260831142640 | 87 | 285 | 0.9 | 1.7 | 0.00 | 0.00 | 0.00 | 78 | 1019.8 |
| 20260831142140 | 86 | 259 | 0.9 | 2.6 | 0.00 | 0.00 | 0.00 | 78 | 1019.9 |
| 20260831141640 | 85 | 242 | 0.9 | 3.5 | 0.00 | 0.00 | 0.00 | 79 | 1019.9 |
| 20260831141140 | 85 | 219 | 1.7 | 3.5 | 0.00 | 0.00 | 0.00 | 81 | 1019.8 |
| 20260831140640 | 84 | 205 | 1.7 | 3.5 | 0.00 | 0.00 | 0.00 | 81 | 1019.9 |
| 20260831140140 | 84 | 207 | 0.9 | 3.5 | 0.00 | 0.00 | 0.00 | 81 | 1019.9 |
| 20260831135640 | 83 | 211 | 1.7 | 2.6 | 0.00 | 0.00 | 0.00 | 82 | 1019.8 |
| 20260831135140 | 83 | 208 | 1.7 | 3.5 | 0.00 | 0.00 | 0.00 | 81 | 1019.8 |
| 20260831134640 | 82 | 193 | 1.7 | 2.6 | 0.00 | 0.00 | 0.00 | 83 | 1019.9 |
| 20260831134140 | 82 | 199 | 1.7 | 2.6 | 0.00 | 0.00 | 0.00 | 83 | 1019.8 |
| 20260831133640 | 81 | 174 | 1.7 | 3.5 | 0.00 | 0.00 | 0.00 | 84 | 1019.7 |
| 20260831133140 | 81 | 188 | 1.7 | 3.5 | 0.00 | 0.00 | 0.00 | 85 | 1019.7 |
| 20260831132640 | 80 | 184 | 0.9 | 2.6 | 0.00 | 0.00 | 0.00 | 85 | 1019.8 |
| 20260831132140 | 80 | 184 | 0.9 | 1.7 | 0.00 | 0.00 | 0.00 | 86 | 1019.8 |
| 20260831131640 | 79 | 179 | 0.9 | 2.6 | 0.00 | 0.00 | 0.00 | 87 | 1019.6 |
| 20260831131140 | 78 | 148 | 0.0 | 2.6 | 0.00 | 0.00 | 0.00 | 88 | 1019.7 |
| 20260831130640 | 77 | 141 | 0.0 | 0.9 | 0.00 | 0.00 | 0.00 | 90 | 1019.6 |
| 20260831130140 | 77 | 141 | 0.0 | 1.7 | 0.00 | 0.00 | 0.00 | 90 | 1019.5 |
| 20260831125640 | 76 | 141 | 0.0 | 1.7 | 0.00 | 0.00 | 0.00 | 91 | 1019.5 |
| 20260831125140 | 75 | 141 | 0.9 | 1.7 | 0.00 | 0.00 | 0.00 | 92 | 1019.4 |
| 20260831124640 | 75 | 140 | 0.9 | 2.6 | 0.00 | 0.00 | 0.00 | 92 | 1019.3 |
| 20260831124140 | 75 | 130 | 0.9 | 1.7 | 0.00 | 0.00 | 0.00 | 93 | 1019.2 |
| 20260831123640 | 74 | 115 | 0.9 | 2.6 | 0.00 | 0.00 | 0.00 | 93 | 1019.1 |
| 20260831123140 | 74 | 154 | 0.9 | 4.3 | 0.00 | 0.00 | 0.00 | 93 | 1019.1 |
| 20260831122640 | 73 | 152 | 0.9 | 2.6 | 0.00 | 0.00 | 0.00 | 93 | 1018.9 |
| 20260831122140 | 73 | 181 | 1.7 | 3.5 | 0.00 | 0.00 | 0.00 | 94 | 1018.9 |
| 20260831121640 | 73 | 135 | 0.9 | 3.5 | 0.00 | 0.00 | 0.00 | 94 | 1018.8 |
| 20260831121140 | 72 | 150 | 0.9 | 2.6 | 0.00 | 0.00 | 0.00 | 94 | 1018.8 |
| 20260831120640 | 71 | 150 | 0.9 | 2.6 | 0.00 | 0.00 | 0.00 | 94 | 1018.8 |
| 20260831120140 | 72 | 149 | 0.0 | 1.7 | 0.00 | 0.00 | 0.00 | 94 | 1018.7 |
| 20260831115640 | 72 | 147 | 0.0 | 1.7 | 0.00 | 0.00 | 0.00 | 94 | 1018.7 |
| 20260831115140 | 72 | 148 | 0.0 | 1.7 | 0.00 | 0.00 | 0.00 | 94 | 1018.6 |
| 20260831114640 | 72 | 148 | 0.0 | 1.7 | 0.00 | 0.00 | 0.00 | 94 | 1018.6 |
| 20260831114140 | 72 | 153 | 0.0 | 1.7 | 0.00 | 0.00 | 0.00 | 94 | 1018.6 |
| 20260831113640 | 72 | 148 | 0.0 | 0.0 | 0.00 | 0.00 | 0.00 | 94 | 1018.6 |
| 20260831113140 | 72 | 148 | 0.0 | 0.0 | 0.00 | 0.00 | 0.00 | 94 | 1018.4 |
| 20260831112640 | 72 | 148 | 0.0 | 0.0 | 0.00 | 0.00 | 0.00 | 94 | 1018.4 |
| 20260831112140 | 71 | 148 | 0.0 | 0.0 | 0.00 | 0.00 | 0.00 | 94 | 1018.4 |
| 20260831111640 | 71 | 148 | 0.0 | 0.0 | 0.00 | 0.00 | 0.00 | 94 | 1018.3 |
| 20260831111140 | 71 | 148 | 0.0 | 0.0 | 0.00 | 0.00 | 0.00 | 94 | 1018.3 |
| 20260831110640 | 72 | 148 | 0.0 | 0.0 | 0.00 | 0.00 | 0.00 | 94 | 1018.3 |
| 20260831110140 | 72 | 148 | 0.0 | 0.0 | 0.00 | 0.00 | 0.00 | 94 | 1018.3 |
| 20260831105640 | 72 | 148 | 0.0 | 0.0 | 0.00 | 0.00 | 0.00 | 93 | 1018.2 |
| 20260831105140 | 72 | 148 | 0.0 | 0.0 | 0.00 | 0.00 | 0.00 | 94 | 1018.2 |
| 20260831104640 | 72 | 148 | 0.0 | 1.7 | 0.00 | 0.00 | 0.00 | 94 | 1018.3 |
| 20260831104140 | 72 | 148 | 0.9 | 2.6 | 0.00 | 0.00 | 0.00 | 94 | 1018.2 |
| 20260831103640 | 72 | 151 | 0.0 | 0.9 | 0.00 | 0.00 | 0.00 | 93 | 1018.2 |
| 20260831103141 | 72 | 138 | 0.0 | 0.0 | 0.00 | 0.00 | 0.00 | 93 | 1018.1 |
| 20260831102640 | 73 | 138 | 0.0 | 0.9 | 0.00 | 0.00 | 0.00 | 93 | 1018.1 |
| 20260831102140 | 73 | 138 | 0.0 | 1.7 | 0.00 | 0.00 | 0.00 | 94 | 1018.1 |
| 20260831101640 | 73 | 174 | 0.0 | 0.0 | 0.00 | 0.00 | 0.00 | 94 | 1018.2 |
| 20260831101140 | 73 | 174 | 0.0 | 1.7 | 0.00 | 0.00 | 0.00 | 94 | 1018.0 |
| 20260831100640 | 73 | 167 | 0.0 | 1.7 | 0.00 | 0.00 | 0.00 | 94 | 1018.0 |
| 20260831100140 | 73 | 167 | 0.0 | 1.7 | 0.00 | 0.00 | 0.00 | 93 | 1018.0 |
| 20260831095640 | 73 | 167 | 0.0 | 0.0 | 0.00 | 0.00 | 0.00 | 93 | 1017.9 |
| 20260831095140 | 73 | 167 | 0.0 | 0.9 | 0.00 | 0.00 | 0.00 | 94 | 1017.9 |
| 20260831094640 | 73 | 167 | 0.0 | 0.9 | 0.00 | 0.00 | 0.00 | 93 | 1017.8 |
| 20260831094140 | 73 | 167 | 0.0 | 0.0 | 0.00 | 0.00 | 0.00 | 93 | 1017.8 |
| 20260831093835 | 73 | 167 | 0.0 | 0.0 | 0.00 | 0.00 | 0.00 | 93 | 1017.8 |
| 20260831093640 | 73 | 167 | 0.0 | 0.0 | 0.00 | 0.00 | 0.00 | 93 | 1017.8 |
| 20260831093140 | 73 | 167 | 0.0 | 0.0 | 0.00 | 0.00 | 0.00 | 92 | 1017.6 |
| 20260831092640 | 74 | 167 | 0.0 | 0.0 | 0.00 | 0.00 | 0.00 | 92 | 1017.6 |
| 20260831092140 | 74 | 167 | 0.0 | 0.9 | 0.00 | 0.00 | 0.00 | 91 | 1017.6 |
| 20260831091640 | 74 | 167 | 0.9 | 2.6 | 0.00 | 0.00 | 0.00 | 92 | 1017.4 |
| 20260831091140 | 74 | 188 | 0.9 | 2.6 | 0.00 | 0.00 | 0.00 | 92 | 1017.3 |
| 20260831090640 | 74 | 179 | 0.0 | 2.6 | 0.00 | 0.00 | 0.00 | 92 | 1017.4 |
| 20260831090140 | 74 | 153 | 0.0 | 1.7 | 0.00 | 0.00 | 0.00 | 93 | 1017.4 |
| 20260831085640 | 74 | 154 | 0.0 | 0.0 | 0.00 | 0.00 | 0.00 | 93 | 1017.3 |
| 20260831085140 | 74 | 155 | 0.0 | 0.0 | 0.00 | 0.00 | 0.00 | 93 | 1017.3 |
| 20260831084640 | 73 | 158 | 0.0 | 0.0 | 0.00 | 0.00 | 0.00 | 93 | 1017.3 |
| 20260831084140 | 73 | 144 | 0.0 | 0.0 | 0.00 | 0.00 | 0.00 | 94 | 1017.3 |
| 20260831083641 | 73 | 142 | 0.0 | 0.0 | 0.00 | 0.00 | 0.00 | 94 | 1017.3 |
| 20260831083140 | 73 | 124 | 0.0 | 0.0 | 0.00 | 0.00 | 0.00 | 94 | 1017.3 |
| 20260831082640 | 73 | 122 | 0.0 | 0.0 | 0.00 | 0.00 | 0.00 | 93 | 1017.3 |
| 20260831082141 | 73 | 122 | 0.0 | 0.0 | 0.00 | 0.00 | 0.00 | 93 | 1017.2 |
| 20260831081641 | 73 | 122 | 0.0 | 0.0 | 0.00 | 0.00 | 0.00 | 93 | 1017.2 |
| 20260831081141 | 73 | 121 | 0.0 | 0.0 | 0.00 | 0.00 | 0.00 | 93 | 1017.2 |
| 20260831080641 | 73 | 125 | 0.0 | 0.0 | 0.00 | 0.00 | 0.00 | 92 | 1017.2 |
| 20260831080141 | 73 | 125 | 0.0 | 0.0 | 0.00 | 0.00 | 0.00 | 92 | 1017.2 |
| 20260831075640 | 73 | 126 | 0.0 | 0.0 | 0.00 | 0.00 | 0.00 | 91 | 1017.1 |
| 20260831075141 | 74 | 126 | 0.0 | 0.0 | 0.00 | 0.00 | 0.00 | 91 | 1017.3 |
| 20260831074641 | 74 | 127 | 0.0 | 0.0 | 0.00 | 0.00 | 0.00 | 90 | 1017.3 |
| 20260831074141 | 74 | 124 | 0.9 | 0.0 | 0.00 | 0.00 | 0.00 | 91 | 1017.4 |
| 20260831073641 | 74 | 125 | 0.9 | 2.6 | 0.00 | 0.00 | 0.00 | 91 | 1017.3 |
| 20260831073141 | 74 | 112 | 0.9 | 3.5 | 0.00 | 0.00 | 0.00 | 92 | 1017.4 |
| 20260831072641 | 74 | 198 | 0.0 | 0.9 | 0.00 | 0.00 | 0.00 | 92 | 1017.4 |
| 20260831072141 | 74 | 198 | 0.0 | 0.9 | 0.00 | 0.00 | 0.00 | 92 | 1017.4 |
| 20260831071641 | 74 | 198 | 0.0 | 0.0 | 0.00 | 0.00 | 0.00 | 91 | 1017.4 |
| 20260831071141 | 74 | 198 | 0.0 | 0.0 | 0.00 | 0.00 | 0.00 | 91 | 1017.5 |
| 20260831070641 | 74 | 198 | 0.0 | 0.0 | 0.00 | 0.00 | 0.00 | 91 | 1017.5 |
| 20260831070141 | 74 | 198 | 0.0 | 0.0 | 0.00 | 0.00 | 0.00 | 91 | 1017.6 |
| 20260831065641 | 74 | 198 | 0.0 | 0.0 | 0.00 | 0.00 | 0.00 | 91 | 1017.6 |
| 20260831065141 | 74 | 198 | 0.0 | 0.9 | 0.00 | 0.00 | 0.00 | 91 | 1017.7 |
| 20260831064641 | 74 | 198 | 0.0 | 1.7 | 0.00 | 0.00 | 0.00 | 91 | 1017.8 |
| 20260831064141 | 75 | 200 | 0.0 | 0.9 | 0.00 | 0.00 | 0.00 | 91 | 1017.7 |
| 20260831063641 | 75 | 200 | 0.0 | 0.9 | 0.00 | 0.00 | 0.00 | 90 | 1017.8 |
| 20260831063141 | 75 | 200 | 0.0 | 0.0 | 0.00 | 0.00 | 0.00 | 90 | 1017.7 |
| 20260831062641 | 75 | 200 | 0.0 | 0.0 | 0.00 | 0.00 | 0.00 | 89 | 1017.8 |
| 20260831062141 | 75 | 200 | 0.0 | 0.0 | 0.00 | 0.00 | 0.00 | 89 | 1017.8 |
| 20260831061641 | 76 | 200 | 0.0 | 0.9 | 0.00 | 0.00 | 0.00 | 88 | 1017.7 |
| 20260831061141 | 76 | 200 | 0.0 | 0.9 | 0.00 | 0.00 | 0.00 | 87 | 1017.7 |
| 20260831060641 | 76 | 200 | 0.0 | 0.9 | 0.00 | 0.00 | 0.00 | 87 | 1017.7 |
| 20260831060141 | 77 | 200 | 0.9 | 1.7 | 0.00 | 0.00 | 0.00 | 87 | 1017.7 |
| 20260831055641 | 77 | 200 | 0.9 | 1.7 | 0.00 | 0.00 | 0.00 | 87 | 1017.7 |
| 20260831055141 | 77 | 197 | 0.9 | 2.6 | 0.00 | 0.00 | 0.00 | 87 | 1017.7 |
| 20260831054641 | 77 | 198 | 0.9 | 1.7 | 0.00 | 0.00 | 0.00 | 87 | 1017.6 |
| 20260831054141 | 77 | 197 | 0.0 | 2.6 | 0.00 | 0.00 | 0.00 | 87 | 1017.8 |
| 20260831053641 | 77 | 200 | 0.0 | 0.0 | 0.00 | 0.00 | 0.00 | 87 | 1017.9 |
| 20260831053141 | 77 | 200 | 0.0 | 0.0 | 0.00 | 0.00 | 0.00 | 86 | 1017.8 |
| 20260831052641 | 77 | 200 | 0.0 | 0.0 | 0.00 | 0.00 | 0.00 | 86 | 1017.9 |
| 20260831052141 | 77 | 200 | 0.0 | 0.0 | 0.00 | 0.00 | 0.00 | 86 | 1017.8 |
| 20260831051641 | 77 | 200 | 0.0 | 0.0 | 0.00 | 0.00 | 0.00 | 86 | 1017.8 |
| 20260831051141 | 78 | 182 | 0.0 | 0.0 | 0.00 | 0.00 | 0.00 | 85 | 1017.8 |
| 20260831050641 | 78 | 190 | 0.0 | 0.0 | 0.00 | 0.00 | 0.00 | 85 | 1017.8 |
| 20260831050141 | 78 | 190 | 0.0 | 0.0 | 0.00 | 0.00 | 0.00 | 85 | 1017.9 |
| 20260831045641 | 78 | 190 | 0.0 | 0.0 | 0.00 | 0.00 | 0.00 | 85 | 1017.9 |
| 20260831045141 | 78 | 191 | 0.0 | 0.0 | 0.00 | 0.00 | 0.00 | 85 | 1017.8 |
| 20260831044641 | 78 | 191 | 0.9 | 2.6 | 0.00 | 0.00 | 0.00 | 84 | 1017.8 |
| 20260831044141 | 78 | 214 | 0.9 | 2.6 | 0.00 | 0.00 | 0.00 | 84 | 1017.9 |
| 20260831043641 | 78 | 210 | 0.9 | 2.6 | 0.00 | 0.00 | 0.00 | 84 | 1017.9 |
| 20260831043141 | 78 | 212 | 0.9 | 2.6 | 0.00 | 0.00 | 0.00 | 84 | 1017.9 |
| 20260831042641 | 78 | 185 | 0.9 | 1.7 | 0.00 | 0.00 | 0.00 | 84 | 1017.9 |
| 20260831042141 | 79 | 184 | 0.9 | 1.7 | 0.00 | 0.00 | 0.00 | 84 | 1018.0 |
| 20260831041641 | 79 | 183 | 0.0 | 2.6 | 0.00 | 0.00 | 0.00 | 84 | 1018.1 |
| 20260831041141 | 79 | 191 | 0.0 | 1.7 | 0.00 | 0.00 | 0.00 | 84 | 1018.1 |
| 20260831040641 | 79 | 191 | 0.0 | 0.9 | 0.00 | 0.00 | 0.00 | 83 | 1018.0 |
| 20260831040141 | 79 | 192 | 0.9 | 1.7 | 0.00 | 0.00 | 0.00 | 82 | 1018.1 |
| 20260831035641 | 80 | 153 | 0.9 | 2.6 | 0.00 | 0.00 | 0.00 | 82 | 1017.9 |
| 20260831035141 | 80 | 146 | 0.9 | 1.7 | 0.00 | 0.00 | 0.00 | 82 | 1017.9 |
| 20260831034641 | 80 | 160 | 0.9 | 1.7 | 0.00 | 0.00 | 0.00 | 82 | 1018.0 |
| 20260831034141 | 80 | 162 | 0.9 | 2.6 | 0.00 | 0.00 | 0.00 | 81 | 1017.9 |
| 20260831033641 | 80 | 168 | 0.9 | 2.6 | 0.00 | 0.00 | 0.00 | 81 | 1017.9 |
| 20260831033141 | 80 | 170 | 0.9 | 2.6 | 0.00 | 0.00 | 0.00 | 81 | 1017.9 |
| 20260831032641 | 80 | 167 | 0.0 | 2.6 | 0.00 | 0.00 | 0.00 | 81 | 1017.8 |
| 20260831032141 | 80 | 162 | 0.9 | 1.7 | 0.00 | 0.00 | 0.00 | 80 | 1017.7 |
| 20260831031641 | 80 | 166 | 0.9 | 2.6 | 0.00 | 0.00 | 0.00 | 80 | 1017.7 |
| 20260831031141 | 81 | 155 | 0.0 | 1.7 | 0.00 | 0.00 | 0.00 | 80 | 1017.6 |
| 20260831030641 | 81 | 145 | 0.9 | 1.7 | 0.00 | 0.00 | 0.00 | 79 | 1017.7 |
| 20260831030141 | 81 | 135 | 0.9 | 2.6 | 0.00 | 0.00 | 0.00 | 79 | 1017.6 |
| 20260831025641 | 81 | 195 | 0.9 | 3.5 | 0.00 | 0.00 | 0.00 | 79 | 1017.6 |
| 20260831025141 | 81 | 178 | 0.9 | 3.5 | 0.00 | 0.00 | 0.00 | 79 | 1017.4 |
| 20260831024641 | 81 | 191 | 0.0 | 1.7 | 0.00 | 0.00 | 0.00 | 78 | 1017.5 |
| 20260831024141 | 82 | 191 | 0.0 | 0.9 | 0.00 | 0.00 | 0.00 | 78 | 1017.6 |
| 20260831023641 | 82 | 189 | 0.0 | 0.0 | 0.00 | 0.00 | 0.00 | 77 | 1017.5 |
| 20260831023141 | 82 | 189 | 0.0 | 0.0 | 0.00 | 0.00 | 0.00 | 77 | 1017.4 |
| 20260831022641 | 83 | 189 | 0.0 | 0.9 | 0.00 | 0.00 | 0.00 | 76 | 1017.3 |
| 20260831022141 | 83 | 189 | 0.9 | 1.7 | 0.00 | 0.00 | 0.00 | 76 | 1017.3 |
| 20260831021641 | 83 | 190 | 0.9 | 1.7 | 0.00 | 0.00 | 0.00 | 75 | 1017.3 |
| 20260831021141 | 83 | 183 | 0.0 | 2.6 | 0.00 | 0.00 | 0.00 | 75 | 1017.2 |
| 20260831020641 | 84 | 166 | 0.0 | 0.9 | 0.00 | 0.00 | 0.00 | 74 | 1017.1 |
| 20260831020141 | 84 | 166 | 0.0 | 1.7 | 0.00 | 0.00 | 0.00 | 73 | 1017.0 |
| 20260831015641 | 84 | 166 | 0.9 | 1.7 | 0.00 | 0.00 | 0.00 | 73 | 1016.9 |
| 20260831015141 | 84 | 164 | 0.9 | 2.6 | 0.00 | 0.00 | 0.00 | 73 | 1016.9 |
| 20260831014641 | 84 | 165 | 0.9 | 2.6 | 0.00 | 0.00 | 0.00 | 73 | 1016.9 |
| 20260831014141 | 84 | 172 | 0.9 | 1.7 | 0.00 | 0.00 | 0.00 | 73 | 1016.9 |
| 20260831013641 | 84 | 158 | 0.9 | 2.6 | 0.00 | 0.00 | 0.00 | 73 | 1016.9 |
| 20260831013141 | 85 | 165 | 0.9 | 1.7 | 0.00 | 0.00 | 0.00 | 72 | 1016.8 |
| 20260831012641 | 85 | 170 | 0.9 | 0.9 | 0.00 | 0.00 | 0.00 | 72 | 1016.8 |
| 20260831012141 | 85 | 167 | 0.9 | 2.6 | 0.00 | 0.00 | 0.00 | 72 | 1016.8 |
| 20260831011641 | 85 | 197 | 0.0 | 1.7 | 0.00 | 0.00 | 0.00 | 72 | 1016.7 |
| 20260831011141 | 85 | 203 | 0.0 | 0.9 | 0.00 | 0.00 | 0.00 | 71 | 1016.8 |
| 20260831010641 | 86 | 203 | 0.9 | 1.7 | 0.00 | 0.00 | 0.00 | 71 | 1016.8 |
| 20260831010141 | 86 | 205 | 0.9 | 1.7 | 0.00 | 0.00 | 0.00 | 70 | 1016.8 |
| 20260831005641 | 86 | 189 | 0.9 | 3.5 | 0.00 | 0.00 | 0.00 | 70 | 1016.8 |
| 20260831005141 | 86 | 181 | 0.9 | 1.7 | 0.00 | 0.00 | 0.00 | 70 | 1016.7 |
| 20260831004641 | 86 | 207 | 1.7 | 1.7 | 0.00 | 0.00 | 0.00 | 69 | 1016.7 |
| 20260831004141 | 87 | 174 | 1.7 | 2.6 | 0.00 | 0.00 | 0.00 | 69 | 1016.6 |
| 20260831003641 | 87 | 208 | 1.7 | 4.3 | 0.00 | 0.00 | 0.00 | 68 | 1016.7 |
| 20260831003141 | 87 | 207 | 1.7 | 3.5 | 0.00 | 0.00 | 0.00 | 68 | 1016.6 |
| 20260831002641 | 88 | 197 | 2.6 | 4.3 | 0.00 | 0.00 | 0.00 | 67 | 1016.5 |
| 20260831002141 | 88 | 219 | 2.6 | 5.2 | 0.00 | 0.00 | 0.00 | 67 | 1016.5 |
| 20260831001641 | 88 | 212 | 2.6 | 5.2 | 0.00 | 0.00 | 0.00 | 66 | 1016.6 |
| 20260831001141 | 88 | 176 | 2.6 | 6.1 | 0.00 | 0.00 | 0.00 | 66 | 1016.6 |
| 20260831000641 | 89 | 179 | 1.7 | 6.1 | 0.00 | 0.00 | 0.00 | 65 | 1016.8 |
| 20260831000141 | 89 | 215 | 2.6 | 4.3 | 0.00 | 0.00 | 0.00 | 65 | 1016.8 |
| 20260830235641 | 89 | 142 | 2.6 | 7.0 | 0.00 | 0.00 | 0.00 | 65 | 1016.7 |
| 20260830235141 | 90 | 217 | 2.6 | 4.3 | 0.00 | 0.00 | 0.00 | 64 | 1016.7 |
| 20260830234641 | 90 | 146 | 3.5 | 5.2 | 0.00 | 0.00 | 0.00 | 63 | 1016.8 |